ARIANE 42P DEB, 44513

Orbit data source: Space-Track

ARIANE 42P DEB, 44513 is space debris in LEO originally from a launch on Mon, 10 Aug 1992 UTC launched from the French Guiana (FRGUI). Debris objects in space refer to the collection of defunct objects orbiting the Earth. Examples of debris include non-operational satellites, rocket bodies, and fragments generated from explosions, collisions, or faulty payload assembly.

Loading next visibility...
Identifier
44513, 1992-052L
Orbit
LEO
Country
Flag of FRFR
Related business
Manufacturer
ArianeGroup
Mission
Spacecraft
Bus & Motor
Unknown
Mass
Unknown
Launch date (UTC)
1992-08-10 (33 years ago)
Launch vehicle
Unknown
Launch site
French Guiana (FRGUI)
Object type
Payload
Rocket body
Debris
Shape & HBR
Unknown shape, 0.1 m
Radar Cross Section
Small (<0.1 m²)

Expand to show TLE details & history
Last TLE update: 2 weeks ago

TLE from 2 weeks ago
0 ARIANE 42P DEB
1 44513U 92052L   25340.25293366  .00002107  00000-0  95228-2 0  9993
2 44513  66.0414 342.2892 0043930  32.2042 328.1642 12.79732144294036
Epoch: 2025-12-06T06:04Z
TLE epoch observation values (Epoch: 2025-12-06T06:04:13.468Z)
Latitude
0.00002°
Longitude
175.94976°
Altitude
1,315.68 km
Speed
7.213 km/s
True Right ascension
22h 49m 09s
True Declination
0° 00' 00"
Sunlit
Object was in daylight at epoch
Visualization orbit readout
Latitude
Unknown
Longitude
Unknown
Altitude
Unknown
Speed
Unknown
Apparent Right ascension
Unknown
Apparent Declination
Unknown
Sunlit
N/A
Visualization observer readout
Local Sidereal Time
00:41:14
Azimuth
Unknown
Elevation
Unknown
Doppler factor
Unknown
Orbital elements
Apogee altitude
1,375.022 km
Perigee altitude
1,307.2 km
Semi-major axis
7,719.248 km
Eccentricity
0.00439
Inclination
66.0414°
RAAN
342.2892°
Arg. of periapsis
32.2042°
True anomaly
327.89742°
Mean anomaly
328.1642°
Eccentric anomaly
328.03093°
Mean motion
3.20023 °/min
Orbital period
112.49 mins
BSTAR
0.0095228
Loading maneuver chart data...
Computing Atmospheric mass density...
Loading historical data...
Loading historical data...
Loading historical data...
Loading historical data...
Loading historical data...
Loading historical data...
Loading historical data...

Documentation

Showing up to 5 results
|